Date,TemperatureHighF,TemperatureAvgF,TemperatureLowF,DewpointHighF,DewpointAvgF,DewpointLowF,HumidityHigh,HumidityAvg,HumidityLow,PressureMaxIn,PressureMinIn,WindSpeedMaxMPH,WindSpeedAvgMPH,GustSpeedMaxMPH,PrecipitationSumIn
2013-6-1,79.6,60.5,37.3,43.7,36.7,29.3,77,45,22,29.65,29.47,8,2,9,0.00
2013-6-2,75.8,59.8,38.0,45.8,33.6,24.0,77,43,17,29.49,29.38,20,2,20,0.00
2013-6-3,65.9,62.5,59.9,35.8,33.5,32.3,37,34,32,29.51,29.46,3,1,6,0.00
2013-6-4,85.3,66.6,41.0,44.4,36.8,29.8,68,37,16,29.54,29.46,9,2,9,0.00
2013-6-5,88.2,68.8,42.7,44.7,37.3,30.9,68,36,15,29.59,29.48,6,2,9,0.00
2013-6-6,89.6,69.2,44.3,50.9,41.4,35.3,78,42,16,29.54,29.46,8,2,9,0.00
2013-6-7,89.8,69.5,47.7,53.2,45.5,39.1,79,46,21,29.59,29.49,8,2,10,0.00
2013-6-8,90.5,71.0,42.7,47.2,40.5,33.7,72,39,16,29.59,29.48,9,2,11,0.00
2013-6-9,91.4,71.9,47.3,50.8,42.1,37.2,72,39,17,29.53,29.33,7,2,8,0.00
2013-6-10,85.3,66.3,45.0,44.2,36.4,26.7,68,37,16,29.39,29.27,9,2,9,0.00
2013-6-12,68.9,56.7,36.0,36.0,29.5,24.1,71,39,19,29.56,29.46,8,2,10,0.00
2013-6-13,61.4,48.1,29.7,35.6,29.6,21.6,76,50,32,29.68,29.55,7,2,10,0.00
2013-6-14,72.7,52.5,26.1,35.9,25.9,18.5,77,42,17,29.68,29.46,7,2,11,0.00
2013-6-15,46.1,39.9,35.3,19.0,17.5,16.3,47,40,33,29.46,29.45,3,1,3,0.00
2013-6-17,59.4,56.4,53.1,40.4,39.1,37.3,55,52,48,29.46,29.45,5,1,5,0.00
2013-6-18,72.0,53.7,43.2,45.0,37.1,29.0,74,56,27,29.46,29.34,9,2,11,0.00
2013-6-19,58.7,46.6,34.6,39.7,35.0,28.6,82,65,45,29.54,29.40,7,2,10,0.01
2013-6-20,61.4,46.1,26.1,39.1,32.1,20.8,84,61,38,29.54,29.48,9,2,9,0.00
2013-6-24,52.6,51.4,50.6,43.8,43.3,42.4,77,74,72,29.32,29.30,8,4,9,0.00
2013-6-25,60.5,53.7,48.4,53.4,48.5,43.6,87,83,75,29.43,29.30,8,2,9,0.00
2013-6-26,73.6,61.0,50.6,58.2,52.0,47.1,92,74,52,29.58,29.42,17,4,17,0.02
2013-6-27,85.3,68.0,45.5,56.1,50.4,42.1,88,58,30,29.68,29.57,10,3,12,0.00
2013-6-28,92.2,73.1,50.0,58.1,50.6,44.8,84,51,21,29.70,29.55,8,2,11,0.00
2013-6-29,92.2,75.0,56.0,59.7,50.3,41.0,80,47,21,29.62,29.52,10,2,12,0.00
2013-6-30,98.1,76.6,51.1,57.6,46.9,32.0,77,42,10,29.57,29.41,7,2,11,0.00